Wetterdaten: Samstag, 31.01.2015
Datum Zeit Temp. A. Feuchte A. Luftdruck Regen Wind Richtung Richtung Sonnenschein ET UV Solar Taupunkt Windchill Windben Empfang
31.01.2015 00:00 -2,3 C 67 % 976,6 hPa 0,0 l/m 0,0 km/h (0 Bft) S-SW 199 0 min 0,000 mm 0,0 UV-I 0 W/m -7,6 C -2,3 C 0,0 km/h (0 Bft) 0,00 %
31.01.2015 00:15 -2,6 C 63 % 976,6 hPa 0,0 l/m 0,0 km/h (0 Bft) S 184 0 min 0,000 mm 0,0 UV-I 0 W/m -8,6 C -2,6 C 0,0 km/h (0 Bft) 0,00 %
31.01.2015 00:30 -2,8 C 63 % 976,7 hPa 0,0 l/m 0,0 km/h (0 Bft) S-SW 203 0 min 0,000 mm 0,0 UV-I 0 W/m -8,8 C -2,8 C 0,0 km/h (0 Bft) 0,00 %
31.01.2015 00:45 -2,7 C 63 % 976,8 hPa 0,0 l/m 0,0 km/h (0 Bft) S-SW 212 0 min 0,000 mm 0,0 UV-I 0 W/m -8,7 C -2,7 C 0,0 km/h (0 Bft) 0,00 %
31.01.2015 01:00 -2,7 C 64 % 976,7 hPa 0,0 l/m 0,0 km/h (0 Bft) SW 225 0 min 0,000 mm 0,0 UV-I 0 W/m -8,5 C -2,7 C 0,0 km/h (0 Bft) 0,00 %
31.01.2015 01:15 -2,7 C 64 % 976,4 hPa 0,0 l/m 0,0 km/h (0 Bft) S-SW 201 0 min 0,000 mm 0,0 UV-I 0 W/m -8,5 C -2,7 C 0,0 km/h (0 Bft) 0,00 %
31.01.2015 01:30 -2,8 C 65 % 976,7 hPa 0,0 l/m 0,0 km/h (0 Bft) S-SW 200 0 min 0,000 mm 0,0 UV-I 0 W/m -8,4 C -2,8 C 0,0 km/h (0 Bft) 0,00 %
31.01.2015 01:45 -2,8 C 66 % 976,6 hPa 0,0 l/m 0,0 km/h (0 Bft) S-SW 213 0 min 0,000 mm 0,0 UV-I 0 W/m -8,2 C -2,8 C 0,0 km/h (0 Bft) 0,00 %
31.01.2015 02:00 -2,7 C 68 % 977,4 hPa 0,0 l/m 0,0 km/h (0 Bft) S-SW 197 0 min 0,000 mm 0,0 UV-I 0 W/m -7,8 C -2,7 C 0,0 km/h (0 Bft) 0,00 %
31.01.2015 02:15 -2,3 C 71 % 977,2 hPa 0,0 l/m 0,0 km/h (0 Bft) NO 40 0 min 0,000 mm 0,0 UV-I 0 W/m -6,8 C -2,3 C 0,0 km/h (0 Bft) 0,00 %
31.01.2015 02:30 -1,8 C 73 % 977,2 hPa 0,0 l/m 2,9 km/h (1 Bft) W-SW 255 0 min 0,000 mm 0,0 UV-I 0 W/m -6,0 C -1,8 C 4,0 km/h (1 Bft) 0,00 %
31.01.2015 02:45 -1,4 C 72 % 977,2 hPa 0,0 l/m 2,2 km/h (1 Bft) W-SW 250 0 min 0,000 mm 0,0 UV-I 0 W/m -5,8 C -1,4 C 7,9 km/h (2 Bft) 0,00 %
31.01.2015 03:00 -1,3 C 73 % 977,5 hPa 0,0 l/m 1,8 km/h (1 Bft) W-SW 256 0 min 0,000 mm 0,0 UV-I 0 W/m -5,5 C -1,3 C 4,0 km/h (1 Bft) 0,00 %
31.01.2015 03:15 -1,4 C 75 % 977,5 hPa 0,0 l/m 1,4 km/h (1 Bft) W-NW 299 0 min 0,000 mm 0,0 UV-I 0 W/m -5,2 C -1,4 C 4,0 km/h (1 Bft) 0,00 %
31.01.2015 03:30 -1,4 C 75 % 977,8 hPa 0,0 l/m 4,3 km/h (1 Bft) S 187 0 min 0,000 mm 0,0 UV-I 0 W/m -5,2 C -1,4 C 11,9 km/h (2 Bft) 0,00 %
31.01.2015 03:45 -1,3 C 75 % 978,0 hPa 0,0 l/m 2,2 km/h (1 Bft) SW 220 0 min 0,000 mm 0,0 UV-I 0 W/m -5,1 C -1,3 C 7,9 km/h (2 Bft) 0,00 %
31.01.2015 04:00 -1,1 C 75 % 978,2 hPa 0,0 l/m 2,9 km/h (1 Bft) SO 135 0 min 0,000 mm 0,0 UV-I 0 W/m -5,0 C -1,1 C 7,9 km/h (2 Bft) 0,00 %
31.01.2015 04:15 -0,8 C 74 % 978,6 hPa 0,0 l/m 0,4 km/h (0 Bft) W-NW 288 0 min 0,000 mm 0,0 UV-I 0 W/m -4,8 C -0,8 C 4,0 km/h (1 Bft) 0,00 %
31.01.2015 04:30 -0,7 C 73 % 978,8 hPa 0,0 l/m 0,0 km/h (0 Bft) S-SW 211 0 min 0,000 mm 0,0 UV-I 0 W/m -4,9 C -0,7 C 0,0 km/h (0 Bft) 0,00 %
31.01.2015 04:45 -0,6 C 72 % 979,0 hPa 0,0 l/m 2,2 km/h (1 Bft) W-SW 255 0 min 0,000 mm 0,0 UV-I 0 W/m -5,0 C -0,6 C 4,0 km/h (1 Bft) 0,00 %
31.01.2015 05:00 -0,7 C 72 % 979,5 hPa 0,0 l/m 0,0 km/h (0 Bft) SW 235 0 min 0,000 mm 0,0 UV-I 0 W/m -5,1 C -0,7 C 0,0 km/h (0 Bft) 0,00 %
31.01.2015 05:15 -0,6 C 72 % 979,6 hPa 0,0 l/m 6,5 km/h (2 Bft) W-SW 256 0 min 0,000 mm 0,0 UV-I 0 W/m -5,0 C -0,7 C 7,9 km/h (2 Bft) 0,00 %
31.01.2015 05:30 -0,6 C 71 % 979,7 hPa 0,0 l/m 5,4 km/h (1 Bft) W-SW 256 0 min 0,000 mm 0,0 UV-I 0 W/m -5,2 C -0,6 C 7,9 km/h (2 Bft) 0,00 %
31.01.2015 05:45 -0,7 C 71 % 980,0 hPa 0,0 l/m 4,0 km/h (1 Bft) W-NW 297 0 min 0,000 mm 0,0 UV-I 0 W/m -5,3 C -0,7 C 7,9 km/h (2 Bft) 0,00 %
31.01.2015 06:00 -0,8 C 71 % 980,2 hPa 0,0 l/m 0,4 km/h (0 Bft) S 185 0 min 0,000 mm 0,0 UV-I 0 W/m -5,4 C -0,8 C 4,0 km/h (1 Bft) 0,00 %
31.01.2015 06:15 -0,7 C 71 % 980,3 hPa 0,0 l/m 0,4 km/h (0 Bft) S-SW 210 0 min 0,000 mm 0,0 UV-I 0 W/m -5,3 C -0,7 C 4,0 km/h (1 Bft) 0,00 %
31.01.2015 06:30 -1,0 C 71 % 980,4 hPa 0,0 l/m 0,0 km/h (0 Bft) W-NW 290 0 min 0,000 mm 0,0 UV-I 0 W/m -5,6 C -1,0 C 0,0 km/h (0 Bft) 0,00 %
31.01.2015 06:45 -1,4 C 71 % 980,5 hPa 0,0 l/m 0,7 km/h (0 Bft) W-SW 255 0 min 0,000 mm 0,0 UV-I 0 W/m -6,0 C -1,4 C 4,0 km/h (1 Bft) 0,00 %
31.01.2015 07:00 -1,5 C 72 % 981,0 hPa 0,0 l/m 0,0 km/h (0 Bft) SW 222 0 min 0,000 mm 0,0 UV-I 0 W/m -5,9 C -1,5 C 0,0 km/h (0 Bft) 0,00 %
31.01.2015 07:15 -1,5 C 72 % 981,0 hPa 0,0 l/m 0,0 km/h (0 Bft) S-SW 212 0 min 0,000 mm 0,0 UV-I 0 W/m -5,9 C -1,5 C 0,0 km/h (0 Bft) 0,00 %
31.01.2015 07:30 -1,5 C 72 % 981,2 hPa 0,0 l/m 2,2 km/h (1 Bft) W-SW 238 0 min 0,000 mm 0,0 UV-I 0 W/m -5,9 C -1,5 C 4,0 km/h (1 Bft) 0,00 %
31.01.2015 07:45 -1,2 C 72 % 981,0 hPa 0,0 l/m 0,0 km/h (0 Bft) N 352 0 min 0,000 mm 0,0 UV-I 1 W/m -5,6 C -1,2 C 0,0 km/h (0 Bft) 0,00 %
31.01.2015 08:00 -1,0 C 71 % 981,3 hPa 0,0 l/m 0,0 km/h (0 Bft) S 171 0 min 0,000 mm 0,0 UV-I 17 W/m -5,6 C -1,0 C 0,0 km/h (0 Bft) 0,00 %
31.01.2015 08:15 -0,9 C 71 % 981,3 hPa 0,0 l/m 0,0 km/h (0 Bft) S 187 0 min 0,000 mm 1,0 UV-I 19 W/m -5,5 C -0,9 C 0,0 km/h (0 Bft) 0,00 %
31.01.2015 08:30 -1,0 C 72 % 981,5 hPa 0,0 l/m 0,0 km/h (0 Bft) S-SW 205 0 min 0,000 mm 1,0 UV-I 34 W/m -5,4 C -1,0 C 0,0 km/h (0 Bft) 0,00 %
31.01.2015 08:45 -0,7 C 72 % 981,5 hPa 0,0 l/m 0,0 km/h (0 Bft) S-SW 198 0 min 0,000 mm 1,0 UV-I 51 W/m -5,1 C -0,7 C 0,0 km/h (0 Bft) 0,00 %
31.01.2015 09:00 -0,5 C 72 % 981,5 hPa 0,0 l/m 0,0 km/h (0 Bft) SW 226 0 min 0,000 mm 1,0 UV-I 54 W/m -4,9 C -0,5 C 0,0 km/h (0 Bft) 0,00 %
31.01.2015 09:15 -0,5 C 74 % 981,9 hPa 0,0 l/m 0,0 km/h (0 Bft) S 171 0 min 0,000 mm 1,0 UV-I 71 W/m -4,5 C -0,5 C 0,0 km/h (0 Bft) 0,00 %
31.01.2015 09:30 -0,6 C 77 % 981,9 hPa 0,0 l/m 0,0 km/h (0 Bft) S-SW 206 0 min 0,000 mm 1,0 UV-I 37 W/m -4,1 C -0,6 C 0,0 km/h (0 Bft) 0,00 %
31.01.2015 09:45 -0,2 C 75 % 981,7 hPa 0,0 l/m 0,0 km/h (0 Bft) SW 224 0 min 0,000 mm 1,0 UV-I 94 W/m -4,1 C -0,2 C 0,0 km/h (0 Bft) 0,00 %
31.01.2015 10:00 0,0 C 74 % 981,8 hPa 0,0 l/m 0,0 km/h (0 Bft) SW 216 0 min 0,000 mm 1,0 UV-I 56 W/m -4,1 C 0,0 C 0,0 km/h (0 Bft) 0,00 %
31.01.2015 10:15 0,5 C 71 % 982,0 hPa 0,0 l/m 0,0 km/h (0 Bft) SW 227 0 min 0,000 mm 1,0 UV-I 133 W/m -4,1 C 0,5 C 0,0 km/h (0 Bft) 0,00 %
31.01.2015 10:30 0,9 C 70 % 981,8 hPa 0,0 l/m 0,0 km/h (0 Bft) N 356 0 min 0,000 mm 2,0 UV-I 138 W/m -3,9 C 0,9 C 0,0 km/h (0 Bft) 0,00 %
31.01.2015 10:45 1,5 C 66 % 981,9 hPa 0,0 l/m 1,4 km/h (1 Bft) NO 35 0 min 0,000 mm 2,0 UV-I 188 W/m -4,1 C 1,5 C 4,0 km/h (1 Bft) 0,00 %
31.01.2015 11:00 1,6 C 64 % 981,9 hPa 0,0 l/m 0,7 km/h (0 Bft) W-NW 291 0 min 0,000 mm 2,0 UV-I 180 W/m -4,5 C 1,6 C 4,0 km/h (1 Bft) 0,00 %
31.01.2015 11:15 2,0 C 63 % 982,2 hPa 0,0 l/m 3,2 km/h (1 Bft) SW 226 0 min 0,000 mm 2,0 UV-I 185 W/m -4,3 C 2,0 C 7,9 km/h (2 Bft) 0,00 %
31.01.2015 11:30 2,1 C 62 % 982,1 hPa 0,0 l/m 1,4 km/h (1 Bft) SW 226 0 min 0,000 mm 2,0 UV-I 220 W/m -4,4 C 2,1 C 4,0 km/h (1 Bft) 0,00 %
31.01.2015 11:45 2,2 C 61 % 982,1 hPa 0,0 l/m 0,0 km/h (0 Bft) S 178 15 min 0,000 mm 2,0 UV-I 230 W/m -4,5 C 2,2 C 0,0 km/h (0 Bft) 0,00 %
31.01.2015 12:00 2,5 C 62 % 981,9 hPa 0,0 l/m 5,8 km/h (2 Bft) W-SW 256 15 min 0,000 mm 2,0 UV-I 240 W/m -4,0 C 2,5 C 7,9 km/h (2 Bft) 0,00 %
31.01.2015 12:15 2,7 C 61 % 981,9 hPa 0,0 l/m 5,4 km/h (1 Bft) W-NW 289 15 min 0,000 mm 2,0 UV-I 235 W/m -4,1 C 2,7 C 7,9 km/h (2 Bft) 0,00 %
31.01.2015 12:30 3,1 C 59 % 981,7 hPa 0,0 l/m 3,2 km/h (1 Bft) S 176 0 min 0,000 mm 2,0 UV-I 230 W/m -4,1 C 3,1 C 4,0 km/h (1 Bft) 0,00 %
31.01.2015 12:45 2,8 C 58 % 981,7 hPa 0,0 l/m 3,2 km/h (1 Bft) W-NW 292 0 min 0,000 mm 2,0 UV-I 222 W/m -4,6 C 2,8 C 7,9 km/h (2 Bft) 0,00 %
31.01.2015 13:00 3,2 C 57 % 981,7 hPa 0,0 l/m 0,4 km/h (0 Bft) O-SO 123 0 min 0,000 mm 2,0 UV-I 211 W/m -4,5 C 3,2 C 4,0 km/h (1 Bft) 0,00 %
31.01.2015 13:15 3,3 C 55 % 981,6 hPa 0,0 l/m 0,0 km/h (0 Bft) SO 124 0 min 0,000 mm 2,0 UV-I 200 W/m -4,9 C 3,3 C 0,0 km/h (0 Bft) 0,00 %
31.01.2015 13:30 3,2 C 56 % 982,0 hPa 0,0 l/m 1,8 km/h (1 Bft) W-SW 252 0 min 0,000 mm 2,0 UV-I 106 W/m -4,7 C 3,2 C 4,0 km/h (1 Bft) 0,00 %
31.01.2015 13:45 3,5 C 55 % 981,9 hPa 0,0 l/m 0,0 km/h (0 Bft) SW 228 0 min 0,000 mm 2,0 UV-I 132 W/m -4,7 C 3,5 C 0,0 km/h (0 Bft) 0,00 %
31.01.2015 14:00 3,3 C 54 % 982,0 hPa 0,0 l/m 0,7 km/h (0 Bft) W-SW 251 0 min 0,000 mm 2,0 UV-I 113 W/m -5,1 C 3,3 C 4,0 km/h (1 Bft) 0,00 %
31.01.2015 14:15 3,6 C 53 % 982,1 hPa 0,0 l/m 0,0 km/h (0 Bft) S 175 0 min 0,000 mm 1,0 UV-I 143 W/m -5,1 C 3,6 C 0,0 km/h (0 Bft) 0,00 %
31.01.2015 14:30 3,3 C 54 % 982,3 hPa 0,0 l/m 9,4 km/h (2 Bft) W-NW 298 0 min 0,000 mm 1,0 UV-I 108 W/m -5,1 C 0,7 C 11,9 km/h (2 Bft) 0,00 %
31.01.2015 14:45 3,2 C 54 % 982,5 hPa 0,0 l/m 1,8 km/h (1 Bft) SW 230 0 min 0,000 mm 1,0 UV-I 104 W/m -5,2 C 3,2 C 4,0 km/h (1 Bft) 0,00 %
31.01.2015 15:00 3,1 C 54 % 982,6 hPa 0,0 l/m 0,4 km/h (0 Bft) NO 43 0 min 0,000 mm 1,0 UV-I 78 W/m -5,3 C 3,1 C 4,0 km/h (1 Bft) 0,00 %
31.01.2015 15:15 3,1 C 54 % 982,8 hPa 0,0 l/m 0,0 km/h (0 Bft) S-SW 204 0 min 0,000 mm 1,0 UV-I 75 W/m -5,3 C 3,1 C 0,0 km/h (0 Bft) 0,00 %
31.01.2015 15:30 3,0 C 54 % 982,8 hPa 0,0 l/m 0,0 km/h (0 Bft) W-SW 253 0 min 0,000 mm 1,0 UV-I 77 W/m -5,4 C 3,0 C 0,0 km/h (0 Bft) 0,00 %
31.01.2015 15:45 2,8 C 53 % 983,0 hPa 0,0 l/m 0,0 km/h (0 Bft) SW 219 0 min 0,000 mm 1,0 UV-I 62 W/m -5,8 C 2,8 C 0,0 km/h (0 Bft) 0,00 %
31.01.2015 16:00 2,4 C 50 % 983,0 hPa 0,0 l/m 0,0 km/h (0 Bft) SW 227 0 min 0,000 mm 1,0 UV-I 51 W/m -6,9 C 2,4 C 0,0 km/h (0 Bft) 0,00 %
31.01.2015 16:15 2,0 C 50 % 983,2 hPa 0,0 l/m 0,0 km/h (0 Bft) SW 216 0 min 0,000 mm 0,0 UV-I 43 W/m -7,3 C 2,0 C 0,0 km/h (0 Bft) 0,00 %
31.01.2015 16:30 1,5 C 53 % 983,2 hPa 0,0 l/m 0,0 km/h (0 Bft) SW 221 0 min 0,000 mm 0,0 UV-I 33 W/m -7,0 C 1,5 C 0,0 km/h (0 Bft) 0,00 %
31.01.2015 16:45 0,8 C 56 % 983,4 hPa 0,0 l/m 0,0 km/h (0 Bft) S 182 0 min 0,000 mm 0,0 UV-I 15 W/m -7,0 C 0,8 C 0,0 km/h (0 Bft) 0,00 %
31.01.2015 17:00 0,2 C 58 % 983,9 hPa 0,0 l/m 0,0 km/h (0 Bft) S 186 0 min 0,000 mm 0,0 UV-I 0 W/m -7,1 C 0,2 C 0,0 km/h (0 Bft) 0,00 %
31.01.2015 17:15 -0,1 C 57 % 984,0 hPa 0,0 l/m 0,0 km/h (0 Bft) S-SW 207 0 min 0,000 mm 0,0 UV-I 0 W/m -7,6 C -0,1 C 0,0 km/h (0 Bft) 0,00 %
31.01.2015 17:30 -0,6 C 62 % 984,4 hPa 0,0 l/m 0,0 km/h (0 Bft) SW 227 0 min 0,000 mm 0,0 UV-I 0 W/m -7,0 C -0,6 C 0,0 km/h (0 Bft) 0,00 %
31.01.2015 17:45 -1,0 C 62 % 984,6 hPa 0,0 l/m 0,0 km/h (0 Bft) S-SW 198 0 min 0,000 mm 0,0 UV-I 0 W/m -7,3 C -1,0 C 0,0 km/h (0 Bft) 0,00 %
31.01.2015 18:00 -1,0 C 63 % 984,5 hPa 0,0 l/m 0,0 km/h (0 Bft) W-SW 240 0 min 0,000 mm 0,0 UV-I 0 W/m -7,1 C -1,0 C 0,0 km/h (0 Bft) 0,00 %
31.01.2015 18:15 -1,6 C 67 % 984,7 hPa 0,0 l/m 0,0 km/h (0 Bft) W-SW 254 0 min 0,000 mm 0,0 UV-I 0 W/m -6,9 C -1,6 C 0,0 km/h (0 Bft) 0,00 %
31.01.2015 18:30 -2,0 C 69 % 984,9 hPa 0,0 l/m 0,0 km/h (0 Bft) W-SW 250 0 min 0,000 mm 0,0 UV-I 0 W/m -6,9 C -2,0 C 0,0 km/h (0 Bft) 0,00 %
31.01.2015 18:45 -1,8 C 69 % 985,0 hPa 0,0 l/m 0,0 km/h (0 Bft) S-SW 208 0 min 0,000 mm 0,0 UV-I 0 W/m -6,7 C -1,8 C 0,0 km/h (0 Bft) 0,00 %
31.01.2015 19:00 -2,7 C 68 % 985,2 hPa 0,0 l/m 0,0 km/h (0 Bft) SW 220 0 min 0,000 mm 0,0 UV-I 0 W/m -7,8 C -2,7 C 0,0 km/h (0 Bft) 0,00 %
31.01.2015 19:15 -2,9 C 68 % 985,3 hPa 0,0 l/m 0,0 km/h (0 Bft) SW 230 0 min 0,000 mm 0,0 UV-I 0 W/m -8,0 C -2,9 C 0,0 km/h (0 Bft) 0,00 %
31.01.2015 19:30 -3,0 C 68 % 985,2 hPa 0,0 l/m 0,0 km/h (0 Bft) SW 218 0 min 0,000 mm 0,0 UV-I 0 W/m -8,1 C -3,0 C 0,0 km/h (0 Bft) 0,00 %
31.01.2015 19:45 -3,4 C 69 % 985,6 hPa 0,0 l/m 0,0 km/h (0 Bft) SW 223 0 min 0,000 mm 0,0 UV-I 0 W/m -8,2 C -3,4 C 0,0 km/h (0 Bft) 0,00 %
31.01.2015 20:00 -3,5 C 70 % 985,6 hPa 0,0 l/m 0,0 km/h (0 Bft) SW 215 0 min 0,000 mm 0,0 UV-I 0 W/m -8,2 C -3,5 C 0,0 km/h (0 Bft) 0,00 %
31.01.2015 20:15 -3,7 C 71 % 985,7 hPa 0,0 l/m 0,0 km/h (0 Bft) S-SW 203 0 min 0,000 mm 0,0 UV-I 0 W/m -8,2 C -3,7 C 0,0 km/h (0 Bft) 0,00 %
31.01.2015 20:30 -4,0 C 72 % 986,0 hPa 0,0 l/m 0,0 km/h (0 Bft) SW 229 0 min 0,000 mm 0,0 UV-I 0 W/m -8,3 C -4,0 C 0,0 km/h (0 Bft) 0,00 %
31.01.2015 20:45 -4,2 C 72 % 986,2 hPa 0,0 l/m 0,0 km/h (0 Bft) S 186 0 min 0,000 mm 0,0 UV-I 0 W/m -8,5 C -4,2 C 0,0 km/h (0 Bft) 0,00 %
31.01.2015 21:00 -4,2 C 71 % 986,1 hPa 0,0 l/m 0,0 km/h (0 Bft) S 190 0 min 0,000 mm 0,0 UV-I 0 W/m -8,7 C -4,2 C 0,0 km/h (0 Bft) 0,00 %
31.01.2015 21:15 -4,1 C 70 % 986,0 hPa 0,0 l/m 0,0 km/h (0 Bft) S-SW 201 0 min 0,000 mm 0,0 UV-I 0 W/m -8,7 C -4,1 C 0,0 km/h (0 Bft) 0,00 %
31.01.2015 21:30 -3,9 C 70 % 986,2 hPa 0,0 l/m 0,0 km/h (0 Bft) S-SW 201 0 min 0,000 mm 0,0 UV-I 0 W/m -8,5 C -3,9 C 0,0 km/h (0 Bft) 0,00 %
31.01.2015 21:45 -3,7 C 69 % 986,3 hPa 0,0 l/m 0,0 km/h (0 Bft) S 190 0 min 0,000 mm 0,0 UV-I 0 W/m -8,5 C -3,7 C 0,0 km/h (0 Bft) 0,00 %
31.01.2015 22:00 -4,2 C 70 % 986,3 hPa 0,0 l/m 0,0 km/h (0 Bft) W-SW 253 0 min 0,000 mm 0,0 UV-I 0 W/m -8,8 C -4,2 C 0,0 km/h (0 Bft) 0,00 %
31.01.2015 22:15 -4,2 C 71 % 986,6 hPa 0,0 l/m 0,0 km/h (0 Bft) W-SW 253 0 min 0,000 mm 0,0 UV-I 0 W/m -8,7 C -4,2 C 0,0 km/h (0 Bft) 0,00 %
31.01.2015 22:30 -4,5 C 73 % 986,6 hPa 0,0 l/m 0,0 km/h (0 Bft) W-SW 253 0 min 0,000 mm 0,0 UV-I 0 W/m -8,6 C -4,5 C 0,0 km/h (0 Bft) 0,00 %
31.01.2015 22:45 -4,9 C 74 % 986,9 hPa 0,0 l/m 0,0 km/h (0 Bft) S 181 0 min 0,000 mm 0,0 UV-I 0 W/m -8,8 C -4,9 C 0,0 km/h (0 Bft) 0,00 %
31.01.2015 23:00 -4,8 C 73 % 986,8 hPa 0,0 l/m 0,0 km/h (0 Bft) S 189 0 min 0,000 mm 0,0 UV-I 0 W/m -8,9 C -4,8 C 0,0 km/h (0 Bft) 0,00 %
31.01.2015 23:15 -4,2 C 71 % 986,9 hPa 0,0 l/m 0,0 km/h (0 Bft) S-SW 204 0 min 0,000 mm 0,0 UV-I 0 W/m -8,7 C -4,2 C 0,0 km/h (0 Bft) 0,00 %
31.01.2015 23:30 -4,4 C 72 % 987,1 hPa 0,0 l/m 0,0 km/h (0 Bft) SW 220 0 min 0,000 mm 0,0 UV-I 0 W/m -8,7 C -4,4 C 0,0 km/h (0 Bft) 0,00 %
31.01.2015 23:45 -4,8 C 73 % 987,1 hPa 0,0 l/m 0,0 km/h (0 Bft) S-SW 200 0 min 0,000 mm 0,0 UV-I 0 W/m -8,9 C -4,8 C 0,0 km/h (0 Bft) 0,00 %
_ Min-Zeit 22:45 16:00 01:15 - 00:00 - - - - - - 23:00 22:45 00:00 00:00
Minimum _ -4,9 C 50 % 976,4 hPa - 0,0 km/h (0 Bft) - - - - - - -8,9 C -4,9 C 0,0 km/h (0 Bft) 0,00 %
_ Max-Zeit 14:15 09:30 23:30 00:00 14:30 - - 11:45 00:00 10:30 12:00 10:30 14:15 03:30 00:00
Maximum _ 3,6 C 77 % 987,1 hPa 0,0 l/m 9,4 km/h
W-NW (2 Bft)
- - 15 min 0,000 mm 2,0 UV-I 240 W/m -3,9 C 3,6 C 11,9 km/h
S (2 Bft)
0,00 %
Durchschnitt _ -0,8 C 67 % 982,0 hPa #0,0 l/m 0,8 km/h (0 Bft) W-SW - #45 min. #0,000 mm 1,5 UV-I 113 W/m -6,3 C -0,8 C 1,8 km/h (1 Bft) 0,00 %